YF9UAG-17 Weather Reports


Display with metric or nautical units.
time (UTC)temp
F
wind
direction
speed
MPH
gust
MPH
rain 1hr
in
rain 24hr
in
rain mn
in
humidity
%
barometer
mb
20260504193742 83 0 0.0 0.0 0.00 0.00 0.00 57 941.0
20260504192220 83 0 0.0 0.0 0.00 0.00 0.00 57 941.0
20260504190658 83 0 0.0 0.0 0.00 0.00 0.00 57 941.0
20260504185136 83 0 0.0 0.0 0.00 0.00 0.00 57 941.0
20260504183614 83 0 0.0 0.0 0.00 0.00 0.00 57 941.0
20260504182052 83 0 0.0 0.0 0.00 0.00 0.00 57 941.0
20260504180530 84 0 0.0 0.0 0.00 0.00 0.00 58 941.0
20260504175008 84 0 0.0 0.0 0.00 0.00 0.00 58 941.0
20260504173446 84 0 0.0 0.0 0.00 0.00 0.00 58 941.0
20260504171924 84 0 0.0 0.0 0.00 0.00 0.00 58 942.0
20260504170402 84 0 0.0 0.0 0.00 0.00 0.00 59 942.0
20260504160234 85 0 0.0 0.0 0.00 0.00 0.00 59 943.0
20260504150106 85 0 0.0 0.0 0.00 0.00 0.00 60 943.0
20260504081638 92 0 0.0 0.0 0.00 0.00 0.00 54 939.0
20260504080116 91 0 0.0 0.0 0.00 0.00 0.00 57 939.0
20260504045652 87 0 0.0 0.0 0.00 0.00 0.00 59 941.0
20260504044130 85 0 0.0 0.0 0.00 0.00 0.00 61 942.0
20260504042608 85 0 0.0 0.0 0.00 0.00 0.00 65 942.0
20260504041046 85 0 0.0 0.0 0.00 0.00 0.00 67 942.0
20260504035524 84 0 0.0 0.0 0.00 0.00 0.00 67 942.0
20260504034002 83 0 0.0 0.0 0.00 0.00 0.00 68 943.0
20260504032440 83 0 0.0 0.0 0.00 0.00 0.00 68 943.0
20260504030918 83 0 0.0 0.0 0.00 0.00 0.00 68 943.0
20260504025356 83 0 0.0 0.0 0.00 0.00 0.00 67 943.0
20260504023834 83 0 0.0 0.0 0.00 0.00 0.00 68 943.0
20260504022312 82 0 0.0 0.0 0.00 0.00 0.00 68 943.0
20260504020750 82 0 0.0 0.0 0.00 0.00 0.00 69 943.0
20260504015228 83 0 0.0 0.0 0.00 0.00 0.00 73 943.0
20260504013706 82 0 0.0 0.0 0.00 0.00 0.00 68 943.0
20260504012144 81 0 0.0 0.0 0.00 0.00 0.00 69 943.0
20260504010622 82 0 0.0 0.0 0.00 0.00 0.00 69 943.0
20260504005100 81 0 0.0 0.0 0.00 0.00 0.00 69 943.0
20260504003538 81 0 0.0 0.0 0.00 0.00 0.00 68 942.0
20260504002015 81 0 0.0 0.0 0.00 0.00 0.00 66 942.0
20260504000453 80 0 0.0 0.0 0.00 0.00 0.00 67 942.0
20260503234931 80 0 0.0 0.0 0.00 0.00 0.00 68 942.0
20260503233409 79 0 0.0 0.0 0.00 0.00 0.00 67 942.0
20260503231847 78 0 0.0 0.0 0.00 0.00 0.00 68 942.0
20260503230325 78 0 0.0 0.0 0.00 0.00 0.00 67 942.0
20260503224803 78 0 0.0 0.0 0.00 0.00 0.00 68 942.0
20260503223241 79 0 0.0 0.0 0.00 0.00 0.00 68 942.0
20260503221719 79 0 0.0 0.0 0.00 0.00 0.00 66 942.0
20260503220157 82 0 0.0 0.0 0.00 0.00 0.00 65 941.0
20260503214635 82 0 0.0 0.0 0.00 0.00 0.00 65 941.0
20260503213114 82 0 0.0 0.0 0.00 0.00 0.00 66 941.0
20260503211551 82 0 0.0 0.0 0.00 0.00 0.00 66 941.0
20260503210029 82 0 0.0 0.0 0.00 0.00 0.00 66 941.0
20260503204507 82 0 0.0 0.0 0.00 0.00 0.00 66 941.0
20260503202945 82 0 0.0 0.0 0.00 0.00 0.00 66 941.0
20260503201423 83 0 0.0 0.0 0.00 0.00 0.00 66 941.0
20260503195901 83 0 0.0 0.0 0.00 0.00 0.00 66 941.0